Location: Table Mountain
(47.2500°N, 120.5778°W)
Time: 04:28:50
(UTC-07:00)

Tiangong 2 - Pass Details

Date: 16 October 2017
Orbit: 388 x 391 km, 42.8° (Epoch: 24 October)

Event Time Altitude Azimuth Distance (km) Brightness Sun altitude
Exits shadow 06:17:45 17° 242° (WSW) 1,083 2.8 -11.7°
Maximum altitude 06:19:29 27° 195° (SSW) 792 2.5 -11.5°
Drops below altitude 10° 06:22:14 10° 135° (SE) 1,414 4.6 -11.0°
Sets 06:24:29 0° 123° (ESE) 2,267 6.1 -10.6°
